Weather in Novorossiyka

Russia / Amur Oblast     52°08′45″N   129°27′52″E
temp.,
°C
wind,
m/s
gust,
m/s
humid.,
%
clouds,
%
prec.,
mm/h
press.,
hPa
HPBL,
m
11 may, tue
tue1100:00+9ssw1167100 0.0 101217
03:00+9s2367100 0.0 101384
06:00+8s2372100 0.0 1014156
09:00+10s2363100 0.0 1014549
12:00+14sse4449100 0.1 10131531
15:00+16sse444151 0.2 10121860
18:00+15sse6543100 0.0 10121407
21:00+9se4968100 0.0 1012207
12 may, wed
wed1200:00+9se41172100 0.0 1012407
03:00+8se41177100 0.0 1010430
06:00+7ese51274100 0.0 1008619
09:00+12se61351100 0.0 10061163
12:00+14se71345100 0.0 10041740
15:00+11se81468100 0.8 10021584
18:00+9se71377100 1.1 10011216
21:00+9se51284100 1.2 1001710
13 may, thu
thu1300:00+9ese61284100 0.6 1000756
03:00+8ese51188100 3.6 1000752
06:00+8e3594100 2.3 1000346
09:00+8sse3689100 3.0 1001460
12:00+8sse4793100 2.1 1002425
15:00+9s3591100 4.4 1003349
18:00+9wsw368896 0.3 1005355
21:00+6s1194100 0.3 100711
14 may, fri
fri1400:00+6sse2396100 0.0 100747
03:00+6ese2496100 0.1 100782
06:00+7ne3691100 0.2 1006250
09:00+11sse71473100 0.3 1002857
12:00+11s71883100 2.1 10001629
15:00+9sw61490100 10.9 10001000
18:00+6wsw6986100 0.6 1001812
21:00+6sw5993100 0.7 1002542
15 may, sat
sat1500:00+6ssw5993100 0.0 1001425
03:00+5sw5109184 0.0 1000415
06:00+5sw499125 0.0 999400
09:00+6wsw5790100 0.3 998993
12:00+6w5890100 0.9 998998
15:00+10wnw71072100 1.3 9971565
18:00+11nw6116798 0.9 997680
21:00+6nw228844 1.2 99838